Flag for U.S.A. Weather past 2 weeks in Provincetown, Massachusetts, U.S.A.

Now
30 °F

Overcast.


Feels Like: 20 °F
Forecast: 28 / 35 °F
Wind: 14 mph from North

Location: Provincetown Weather Reporting Station

Current Time: Jan 29, 2015 at 12:14:19 AM

Latest Report: Jan 28, 2015 at 11:35 PM


Visibility: 10 mi

Pressure: 30.18 "Hg

Humidity: 59%

Dew point: 18 °F

Location of ProvincetownLocation

Historic Weather in Provincetown — Graph

°F

Provincetown temperature yesterday

Maximum temperature yesterday: 28 °F (at 8:15 PM)
Minimum temperature yesterday: 21 °F (at 12:55 AM)
Average temperature yesterday: 24 °F

Past Weeks' High & Low Weather Summary

 TemperatureHumidityPressure
High50 °F (Jan 18, 1:35 PM)100% (Jan 15, 7:35 AM)30.62 "Hg (Jan 15, 7:35 AM)
Low16 °F (Jan 17, 3:15 AM)36% (Jan 16, 7:55 PM)29.08 "Hg (Jan 24, 4:55 PM)
Average33 °F70%29.95 "Hg
* Reported Jan 13 10:15 PM — Jan 28 10:55 PM, Provincetown, Weather by CustomWeather, © 2014

Note: Actual official high and low records may vary slightly from our data, if they occured in-between our weather recording intervals... More about our weather records

Advertising

Provincetown weather history for previous 24 hours

 ConditionsComfort  
Time TempWeatherWind HumidityBarometerVisibility
10:55 PM
Jan 28
28 °FOvercast.17 mph69%30.18 "Hg10 mi
10:35 PM28 °FOvercast.18 mph64%30.18 "Hg10 mi
10:15 PM28 °FOvercast.16 mph69%30.16 "Hg10 mi
9:55 PM28 °FOvercast.15 mph69%30.15 "Hg10 mi
9:35 PM28 °FOvercast.16 mph69%30.15 "Hg10 mi
9:15 PM28 °FOvercast.18 mph69%30.14 "Hg10 mi
8:55 PM28 °FOvercast.16 mph64%30.13 "Hg10 mi
8:35 PM28 °FOvercast.17 mph64%30.13 "Hg10 mi
8:15 PM28 °FOvercast.15 mph64%30.13 "Hg10 mi
7:55 PM27 °FOvercast.16 mph64%30.12 "Hg10 mi
7:35 PM27 °FOvercast.15 mph64%30.11 "Hg10 mi
6:55 PM27 °FOvercast.14 mph64%30.10 "Hg10 mi
6:35 PM27 °FOvercast.15 mph64%30.09 "Hg10 mi
6:15 PM27 °FOvercast.15 mph59%30.08 "Hg10 mi
5:55 PM27 °FOvercast.15 mph59%30.07 "Hg10 mi
5:35 PM27 °FOvercast.13 mph54%30.06 "Hg10 mi
5:15 PM27 °FOvercast.14 mph54%30.05 "Hg10 mi
4:55 PM27 °FOvercast.15 mph54%30.03 "Hg10 mi
4:35 PM27 °FOvercast.13 mph59%30.02 "Hg10 mi
4:15 PM27 °FOvercast.16 mph54%30.01 "Hg10 mi
3:55 PM25 °FOvercast.18 mph59%30.00 "Hg10 mi
3:35 PM25 °FMostly cloudy.16 mph59%29.99 "Hg10 mi
3:15 PM25 °FOvercast.14 mph63%29.98 "Hg10 mi
2:55 PM25 °FOvercast.18 mph63%29.97 "Hg10 mi
2:35 PM25 °FOvercast.15 mph69%29.96 "Hg10 mi
2:15 PM25 °FMostly cloudy.18 mph63%29.95 "Hg10 mi
1:55 PM25 °FMostly cloudy.14 mph63%29.94 "Hg10 mi
1:35 PM25 °FOvercast.17 mph63%29.94 "Hg10 mi
1:15 PM25 °FOvercast.15 mph59%29.94 "Hg10 mi
12:55 PM25 °FOvercast.16 mph63%29.93 "Hg10 mi
12:35 PM25 °FMostly cloudy.17 mph69%29.93 "Hg10 mi
12:15 PM23 °FMostly cloudy.17 mph74%29.93 "Hg10 mi
11:55 AM23 °FMostly cloudy.20 mph63%29.92 "Hg10 mi
11:35 AM23 °FMostly cloudy.18 mph63%29.93 "Hg10 mi
11:15 AM23 °FPartly sunny.18 mph68%29.93 "Hg10 mi
10:55 AM21 °FPartly sunny.17 mph74%29.92 "Hg10 mi
10:35 AM21 °FPartly sunny.21 mph74%29.92 "Hg10 mi
10:15 AM21 °FPartly sunny.18 mph80%29.92 "Hg10 mi
9:55 AM21 °FPartly sunny.21 mph80%29.90 "Hg9 mi
9:35 AM21 °FPartly sunny.21 mph74%29.89 "Hg8 mi
9:15 AM21 °FPartly sunny.17 mph68%29.88 "Hg5 mi
8:55 AM21 °FMostly cloudy.24 mph80%29.87 "Hg4 mi
8:35 AM21 °FMostly cloudy.23 mph80%29.86 "Hg4 mi
8:15 AM21 °FOvercast.21 mph80%29.85 "Hg2 mi
7:55 AM21 °FOvercast.22 mph80%29.83 "Hg2 mi
7:35 AM21 °FMostly cloudy.24 mph86%29.82 "Hg2 mi
7:15 AM21 °FMostly cloudy.23 mph86%29.81 "Hg1 mi
6:35 AM21 °FMostly cloudy.23 mph80%29.78 "Hg2 mi
6:15 AM21 °FMostly cloudy.21 mph86%29.77 "Hg2 mi
5:35 AM21 °FMostly cloudy.24 mph86%29.75 "Hg2 mi
5:15 AM21 °FMostly cloudy.21 mph86%29.73 "Hg2 mi
4:55 AM21 °FMostly cloudy.22 mph80%29.72 "Hg2 mi
4:35 AM21 °FMostly cloudy.23 mph86%29.70 "Hg2 mi
4:15 AM21 °FMostly cloudy.25 mph93%29.69 "Hg1 mi
3:35 AM21 °FMostly cloudy.23 mph86%29.68 "Hg1 mi
3:15 AM21 °FMostly cloudy.20 mph80%29.67 "Hg1 mi
1:55 AM23 °FOvercast.26 mph86%29.64 "Hg1 mi
1:35 AM23 °FOvercast.25 mph80%29.62 "Hg1 mi
12:55 AM21 °FMostly cloudy.30 mph93%29.60 "HgN/A
12:35 AM23 °FMostly cloudy.25 mph80%29.59 "HgN/A
Weather by CustomWeather, © 2014

See weather overviewHow to use our weather pages